BAW247 EGLL-SBGR

Flight info

Callsign BAW247
Flight time N/A
Altitude 34000
Route GASGU2J GASGU N514 ADKIK DCT JOZMA DCT GAPLI/M085F340 DCT EVBAK DCT TAMEL DCT GONAN DCT 40N017W 35N020W DCT RIPOD/N0510F290 DCT GOBEG/M085F360 DCT BAMUX/N0497F360 DCT TARIM DCT PINRU/N0491F380 UN741 ERUGU UZ61 NAXUN/N0486F400 UZ61 REDAD UZ21 VUNOX SANPA1A
Aircraft A35K/H-SBDE1E2E3GHIJ1J3J4J5J6M1M2P2RWXYZ/LB1D1

Departure

Time 2026-05-07 21:32
Airport London Heathrow Airport (EGLL)

Arrival

Time N/A
Airport São Paulo/Guarulhos–Governor André Franco Montoro International Airport (SBGR)
Time Latitude Longitude Altitude Speed Heading
2026-05-07 20:23 51.47109 -0.46130 97 ft 0 kts 56°
2026-05-07 21:20 51.47107 -0.46134 92 ft 3 kts 56°
2026-05-07 21:20 51.47092 -0.46169 92 ft 4 kts 56°
2026-05-07 21:20 51.47080 -0.46198 92 ft 4 kts 49°
2026-05-07 21:21 51.47061 -0.46218 91 ft 4 kts 354°
2026-05-07 21:21 51.47039 -0.46204 92 ft 4 kts 326°
2026-05-07 21:21 51.47020 -0.46183 91 ft 4 kts 326°
2026-05-07 21:21 51.47015 -0.46177 90 ft 0 kts 326°
2026-05-07 21:25 51.47018 -0.46181 92 ft 2 kts 326°
2026-05-07 21:25 51.47033 -0.46197 94 ft 4 kts 325°
2026-05-07 21:25 51.47086 -0.46256 96 ft 16 kts 326°
2026-05-07 21:25 51.47184 -0.46363 96 ft 18 kts 325°
2026-05-07 21:26 51.47237 -0.46458 96 ft 10 kts 288°
2026-05-07 21:26 51.47239 -0.46575 95 ft 11 kts 269°
2026-05-07 21:26 51.47238 -0.46709 92 ft 13 kts 269°
2026-05-07 21:26 51.47229 -0.46838 96 ft 10 kts 241°
2026-05-07 21:27 51.47169 -0.46868 94 ft 9 kts 179°
2026-05-07 21:27 51.47101 -0.46866 93 ft 10 kts 177°
2026-05-07 21:27 51.47021 -0.46863 92 ft 15 kts 179°
2026-05-07 21:27 51.46891 -0.46861 94 ft 20 kts 180°
2026-05-07 21:28 51.46750 -0.46860 93 ft 20 kts 179°
2026-05-07 21:28 51.46674 -0.46876 97 ft 7 kts 219°
2026-05-07 21:28 51.46659 -0.46958 96 ft 8 kts 263°
2026-05-07 21:28 51.46657 -0.47060 95 ft 10 kts 269°
2026-05-07 21:29 51.46656 -0.47199 95 ft 17 kts 270°
2026-05-07 21:29 51.46655 -0.47423 95 ft 22 kts 269°
2026-05-07 21:29 51.46654 -0.47716 94 ft 33 kts 270°
2026-05-07 21:29 51.46654 -0.48058 94 ft 29 kts 269°
2026-05-07 21:30 51.46653 -0.48383 92 ft 29 kts 270°
2026-05-07 21:30 51.46652 -0.48629 94 ft 17 kts 270°
2026-05-07 21:30 51.46633 -0.48731 97 ft 9 kts 226°
2026-05-07 21:30 51.46576 -0.48777 95 ft 10 kts 193°
2026-05-07 21:31 51.46487 -0.48719 96 ft 22 kts 114°
2026-05-07 21:31 51.46479 -0.48407 92 ft 43 kts 89°
2026-05-07 21:31 51.46482 -0.47542 93 ft 111 kts 89°
2026-05-07 21:31 51.46488 -0.45964 96 ft 170 kts 90°
2026-05-07 21:32 51.46492 -0.44008 713 ft 176 kts 91°
2026-05-07 21:32 51.46418 -0.42097 1597 ft 169 kts 108°
2026-05-07 21:32 51.45763 -0.40551 2081 ft 176 kts 139°
2026-05-07 21:32 51.44734 -0.39316 2313 ft 194 kts 147°
2026-05-07 21:33 51.43543 -0.38109 2614 ft 210 kts 149°
2026-05-07 21:33 51.42113 -0.37263 2857 ft 231 kts 172°
2026-05-07 21:33 51.40476 -0.37511 3280 ft 243 kts 194°
2026-05-07 21:33 51.38825 -0.38285 3815 ft 251 kts 195°
2026-05-07 21:34 51.37139 -0.39115 4385 ft 256 kts 196°
2026-05-07 21:34 51.35450 -0.40069 5003 ft 260 kts 202°
2026-05-07 21:34 51.33833 -0.41423 5591 ft 264 kts 212°
2026-05-07 21:34 51.32366 -0.43222 6228 ft 268 kts 223°
2026-05-07 21:35 51.31114 -0.45382 6883 ft 269 kts 233°
2026-05-07 21:35 51.30060 -0.47855 7601 ft 269 kts 242°
2026-05-07 21:35 51.29388 -0.50629 8375 ft 267 kts 254°
2026-05-07 21:35 51.28890 -0.53489 9161 ft 267 kts 255°
2026-05-07 21:36 51.28390 -0.56347 9945 ft 267 kts 255°
2026-05-07 21:36 51.27873 -0.59212 10482 ft 275 kts 253°
2026-05-07 21:36 51.27290 -0.62220 10808 ft 291 kts 252°
2026-05-07 21:36 51.26671 -0.65373 11147 ft 306 kts 252°
2026-05-07 21:37 51.26021 -0.68694 11476 ft 320 kts 252°
2026-05-07 21:37 51.25352 -0.72117 11817 ft 334 kts 252°
2026-05-07 21:37 51.24646 -0.75732 12161 ft 347 kts 252°
2026-05-07 21:37 51.23912 -0.79478 12498 ft 360 kts 252°
2026-05-07 21:38 51.23154 -0.83347 12900 ft 370 kts 252°
2026-05-07 21:38 51.22380 -0.87294 13436 ft 376 kts 251°
2026-05-07 21:38 51.21592 -0.91297 13986 ft 381 kts 251°
2026-05-07 21:38 51.20688 -0.95296 14494 ft 384 kts 244°
2026-05-07 21:39 51.19337 -0.98960 15114 ft 384 kts 235°
2026-05-07 21:39 51.17772 -1.02424 15669 ft 387 kts 232°
2026-05-07 21:39 51.16100 -1.05820 16209 ft 390 kts 231°
2026-05-07 21:39 51.14409 -1.09151 16743 ft 393 kts 231°
2026-05-07 21:40 51.12681 -1.12552 17281 ft 397 kts 231°
2026-05-07 21:40 51.10950 -1.15996 17851 ft 400 kts 231°
2026-05-07 21:40 51.09221 -1.19473 18400 ft 403 kts 231°
2026-05-07 21:40 51.07484 -1.22994 18912 ft 406 kts 232°
2026-05-07 21:41 51.05742 -1.26543 19436 ft 409 kts 232°
2026-05-07 21:41 51.03987 -1.30118 19977 ft 411 kts 232°
2026-05-07 21:41 51.02233 -1.33712 20496 ft 414 kts 233°
2026-05-07 21:41 51.00672 -1.37578 21006 ft 418 kts 241°
2026-05-07 21:42 50.99518 -1.41830 21534 ft 421 kts 250°
2026-05-07 21:42 50.98623 -1.46210 22019 ft 426 kts 252°
2026-05-07 21:42 50.97807 -1.50760 22542 ft 429 kts 253°
2026-05-07 21:42 50.97039 -1.55344 23045 ft 432 kts 254°
2026-05-07 21:43 50.96279 -1.59972 23546 ft 435 kts 254°
2026-05-07 21:43 50.95509 -1.64635 23992 ft 438 kts 253°
2026-05-07 21:43 50.94725 -1.69309 24432 ft 441 kts 253°
2026-05-07 21:43 50.93923 -1.74018 24863 ft 443 kts 253°
2026-05-07 21:44 50.93112 -1.78734 25295 ft 446 kts 253°
2026-05-07 21:44 50.92298 -1.83428 25723 ft 448 kts 253°
2026-05-07 21:44 50.91467 -1.88193 26129 ft 451 kts 253°
2026-05-07 21:44 50.90628 -1.92997 26528 ft 453 kts 253°
2026-05-07 21:45 50.89785 -1.97811 26943 ft 456 kts 253°
2026-05-07 21:45 50.88934 -2.02660 27350 ft 458 kts 253°
2026-05-07 21:45 50.88079 -2.07528 27737 ft 460 kts 253°